Find Starlink 31278

NORAD ID: 59163 Int'l Des: 2024-044 Owner: SPXS Country: US Constellation: starlink operational
LEOCIRCULAR

当前视图

正在加载3D地球...

About Starlink 31278

Starlink 31278 (NORAD 59163) is a starlink constellation satellite (v2 mini) launched Mar 4, 2024 by SPXS of US. It operates in LEO, CIRCULAR orbit with a mass of 730.00 kg.

关于 Starlink 31278

正在加载描述...

即将过境

Passes for default location (London). Set your location on the main map for personalized predictions.

高度历史

Loading altitude history...

两行轨道根数

1 59163U 24044M 26168.00002315 -.00021305 00000-0 -76641-3 0 9992
2 59163 43.0017 265.9760 0001469 269.8111 180.7109 15.27600769 5750
Epoch: Jun 17, 2026 • Age: 28 hours

当前状态

高度 487.1 km
速度 7.63 km/s
星下点 42.60°N, 8.47°E
发射日期 Mar 4, 2024
运行时间 2.2 years
类型 internet

技术详情

分类 Payload
质量 730.00 kg
干质量 700.00 kg
总质量 730.00 kg
长度 0.30 m
直径 4.10 m
跨度 29.00 m
形状 Box + pan
制造商 SPXS
平台类型 Starlink V2M
阶段状态 In Orbit
所有者/国家 SPXS/US

Most Searched